GUNSMOKE-J 3

导读

GUNSMOKE-J 3是美国于2021年3月22日北京时间8时发射的卫星,作为美国军事卫星体系中GUNSMOKE系列卫星的一员,它承担着空间态势感知相关任务,依托美国成熟航天发射技术进入预定轨道,运行至今已近五年,长期服务于美国太空监测与军事空间能力建设,是美军布局近地空间感知网络的重要组成部分,对美国维护太空领域优势具备支撑作用。

基本信息
目录编号:
47969
目录名称:
GUNSMOKE-J 3
国际标识:
2021-023E
轨道中心:
EARTH
卫星名称:
GUNSMOKE-J 3
卫星全名:
--
卫星状态:
已陨落 最后检测时间 2025-04-26
发射日期:
2021-03-22 UTC
国别 :
美国 (US)
星等 :
--
轨道信息
数据来源 国际轨道数据
星历时间: 2025-04-23T06:54:31+0800
轨道信息已过期447天
半长轴: 6576.45km
偏心率: 0.0013602
轨道倾角: 44.975°
近地点辐角 251.201°
升交点赤经 343.894°
平近点角 108.743°
近地点: 189.369km
远地点: 207.261km
周期: 88.460分钟
每日圈数: 16.278544
详细信息
使用方式:
暂无